| time (UTC) | temp F | wind direction | speed MPH | gust MPH | rain 1hr in | rain 24hr in | rain mn in | humidity % | barometer mb |
| 20260502123111 | 33 | 285 | 2.0 | 4.0 | 0.00 | 0.00 | 0.00 | 87 | 1016.2 |
| 20260502121603 | 33 | 285 | 1.0 | 4.0 | 0.00 | 0.00 | 0.00 | 86 | 1016.1 |
| 20260502120113 | 33 | 256 | 3.0 | 4.0 | 0.00 | 0.00 | 0.00 | 86 | 1016.0 |
| 20260502114604 | 33 | 256 | 2.0 | 3.0 | 0.00 | 0.00 | 0.00 | 87 | 1015.8 |
| 20260502113101 | 33 | 256 | 4.0 | 6.0 | 0.00 | 0.00 | 0.00 | 87 | 1015.8 |
| 20260502111602 | 34 | 33 | 2.0 | 3.0 | 0.00 | 0.00 | 0.00 | 87 | 1015.8 |
| 20260502110059 | 34 | 33 | 2.0 | 3.0 | 0.00 | 0.00 | 0.00 | 86 | 1015.6 |
| 20260502104600 | 34 | 0 | 1.0 | 3.0 | 0.00 | 0.00 | 0.00 | 85 | 1015.6 |
| 20260502103114 | 34 | 33 | 1.0 | 2.0 | 0.00 | 0.00 | 0.00 | 84 | 1015.4 |
| 20260502101559 | 34 | 33 | 1.0 | 2.0 | 0.00 | 0.00 | 0.00 | 84 | 1015.2 |
| 20260502100124 | 34 | 33 | 1.0 | 2.0 | 0.00 | 0.00 | 0.00 | 84 | 1015.2 |
| 20260502090112 | 35 | 0 | 0.0 | 0.0 | 0.00 | 0.00 | 0.00 | 82 | 1014.7 |
| 20260502070101 | 39 | 0 | 0.0 | 1.0 | 0.00 | 0.00 | 0.00 | 77 | 1014.2 |
| 20260502064609 | 40 | 0 | 0.0 | 2.0 | 0.00 | 0.00 | 0.00 | 75 | 1014.2 |
| 20260502063103 | 41 | 33 | 2.0 | 3.0 | 0.00 | 0.00 | 0.00 | 72 | 1014.1 |
| 20260502061601 | 42 | 33 | 1.0 | 3.0 | 0.00 | 0.00 | 0.00 | 71 | 1014.0 |
| 20260502054600 | 43 | 33 | 2.0 | 7.0 | 0.00 | 0.00 | 0.00 | 71 | 1013.6 |
| 20260502053101 | 44 | 9 | 4.0 | 7.0 | 0.00 | 0.00 | 0.00 | 70 | 1013.4 |
| 20260502051659 | 44 | 13 | 5.0 | 9.0 | 0.00 | 0.00 | 0.00 | 71 | 1013.3 |
| 20260502050101 | 44 | 24 | 2.0 | 5.0 | 0.00 | 0.00 | 0.00 | 69 | 1013.2 |
| 20260502044609 | 45 | 306 | 2.0 | 4.0 | 0.00 | 0.00 | 0.00 | 66 | 1013.0 |
| 20260502043109 | 47 | 306 | 3.0 | 4.0 | 0.00 | 0.00 | 0.00 | 63 | 1012.8 |
| 20260502041600 | 48 | 306 | 1.0 | 3.0 | 0.00 | 0.00 | 0.00 | 61 | 1012.7 |
| 20260502040100 | 51 | 306 | 4.0 | 5.0 | 0.00 | 0.00 | 0.00 | 57 | 1012.8 |
| 20260502034600 | 53 | 316 | 4.0 | 6.0 | 0.00 | 0.00 | 0.00 | 55 | 1012.7 |
| 20260502033100 | 54 | 322 | 4.0 | 8.0 | 0.00 | 0.00 | 0.00 | 53 | 1012.5 |
| 20260502031611 | 55 | 322 | 6.0 | 9.0 | 0.00 | 0.00 | 0.00 | 52 | 1012.5 |
| 20260502030058 | 56 | 330 | 6.0 | 10.0 | 0.00 | 0.00 | 0.00 | 49 | 1012.2 |
| 20260502024559 | 58 | 328 | 7.0 | 12.0 | 0.00 | 0.00 | 0.00 | 47 | 1012.1 |
| 20260502023101 | 59 | 330 | 10.0 | 15.0 | 0.00 | 0.00 | 0.00 | 44 | 1012.0 |
| 20260502021603 | 60 | 320 | 10.0 | 14.0 | 0.00 | 0.00 | 0.00 | 44 | 1011.9 |
| 20260502020111 | 61 | 332 | 11.0 | 16.0 | 0.00 | 0.00 | 0.00 | 42 | 1011.8 |
| 20260502014600 | 62 | 334 | 14.0 | 23.0 | 0.00 | 0.00 | 0.00 | 39 | 1011.6 |
| 20260502013107 | 64 | 337 | 16.0 | 23.0 | 0.00 | 0.00 | 0.00 | 38 | 1011.6 |
| 20260502011559 | 64 | 343 | 16.0 | 23.0 | 0.00 | 0.00 | 0.00 | 38 | 1011.6 |
| 20260502010101 | 66 | 12 | 14.0 | 22.0 | 0.00 | 0.00 | 0.00 | 38 | 1011.5 |
| 20260502004559 | 67 | 331 | 18.0 | 28.0 | 0.00 | 0.00 | 0.00 | 36 | 1011.4 |
| 20260502003103 | 67 | 359 | 18.0 | 26.0 | 0.00 | 0.00 | 0.00 | 37 | 1011.2 |
| 20260502001603 | 66 | 354 | 14.0 | 26.0 | 0.00 | 0.00 | 0.00 | 38 | 1011.3 |
| 20260502000101 | 67 | 351 | 14.0 | 21.0 | 0.00 | 0.00 | 0.00 | 35 | 1011.0 |
| 20260501234601 | 69 | 350 | 15.0 | 24.0 | 0.00 | 0.00 | 0.00 | 32 | 1010.8 |
| 20260501233104 | 69 | 354 | 16.0 | 22.0 | 0.00 | 0.00 | 0.00 | 33 | 1010.8 |
| 20260501231614 | 70 | 339 | 16.0 | 26.0 | 0.00 | 0.00 | 0.00 | 31 | 1010.8 |
| 20260501230118 | 70 | 336 | 20.0 | 30.0 | 0.00 | 0.00 | 0.00 | 27 | 1010.5 |
| 20260501224602 | 72 | 336 | 21.0 | 28.0 | 0.00 | 0.00 | 0.00 | 28 | 1010.6 |
| 20260501223109 | 71 | 347 | 19.0 | 26.0 | 0.00 | 0.00 | 0.00 | 29 | 1010.4 |
| 20260501221614 | 72 | 347 | 18.0 | 28.0 | 0.00 | 0.00 | 0.00 | 29 | 1010.3 |
| 20260501220109 | 72 | 347 | 20.0 | 28.0 | 0.00 | 0.00 | 0.00 | 28 | 1010.3 |
| 20260501214612 | 73 | 351 | 20.0 | 29.0 | 0.00 | 0.00 | 0.00 | 27 | 1010.3 |
| 20260501213107 | 73 | 18 | 20.0 | 28.0 | 0.00 | 0.00 | 0.00 | 29 | 1010.2 |
| 20260501211602 | 73 | 351 | 17.0 | 25.0 | 0.00 | 0.00 | 0.00 | 27 | 1010.2 |
| 20260501210108 | 73 | 350 | 16.0 | 33.0 | 0.00 | 0.00 | 0.00 | 27 | 1010.0 |
| 20260501204559 | 73 | 313 | 16.0 | 23.0 | 0.00 | 0.00 | 0.00 | 27 | 1010.0 |
| 20260501203104 | 73 | 324 | 14.0 | 22.0 | 0.00 | 0.00 | 0.00 | 28 | 1009.8 |
| 20260501201601 | 74 | 311 | 19.0 | 25.0 | 0.00 | 0.00 | 0.00 | 26 | 1009.8 |
| 20260501200100 | 73 | 265 | 14.0 | 23.0 | 0.00 | 0.00 | 0.00 | 28 | 1009.7 |
| 20260501194603 | 74 | 300 | 16.0 | 25.0 | 0.00 | 0.00 | 0.00 | 26 | 1010.0 |
| 20260501193059 | 74 | 278 | 15.0 | 27.0 | 0.00 | 0.00 | 0.00 | 26 | 1009.8 |
| 20260501191607 | 74 | 241 | 15.0 | 30.0 | 0.00 | 0.00 | 0.00 | 25 | 1010.0 |
| 20260501190126 | 74 | 262 | 19.0 | 28.0 | 0.00 | 0.00 | 0.00 | 24 | 1010.1 |
| 20260501184558 | 74 | 253 | 21.0 | 29.0 | 0.00 | 0.00 | 0.00 | 23 | 1010.1 |
| 20260501183100 | 74 | 236 | 18.0 | 27.0 | 0.00 | 0.00 | 0.00 | 24 | 1010.3 |
| 20260501181602 | 73 | 263 | 17.0 | 28.0 | 0.00 | 0.00 | 0.00 | 24 | 1010.7 |
| 20260501180101 | 73 | 240 | 17.0 | 25.0 | 0.00 | 0.00 | 0.00 | 25 | 1010.9 |
| 20260501174611 | 72 | 242 | 17.0 | 29.0 | 0.00 | 0.00 | 0.00 | 27 | 1010.9 |
| 20260501173109 | 71 | 252 | 16.0 | 23.0 | 0.00 | 0.00 | 0.00 | 27 | 1011.1 |
| 20260501171602 | 70 | 253 | 18.0 | 26.0 | 0.00 | 0.00 | 0.00 | 26 | 1011.2 |
| 20260501164559 | 69 | 251 | 15.0 | 21.0 | 0.00 | 0.00 | 0.00 | 29 | 1011.4 |
| 20260501163059 | 68 | 222 | 10.0 | 18.0 | 0.00 | 0.00 | 0.00 | 31 | 1011.6 |
| 20260501161600 | 66 | 245 | 12.0 | 18.0 | 0.00 | 0.00 | 0.00 | 34 | 1011.8 |
| 20260501160101 | 64 | 265 | 13.0 | 20.0 | 0.00 | 0.00 | 0.00 | 35 | 1012.1 |
| 20260501154610 | 62 | 241 | 12.0 | 18.0 | 0.00 | 0.00 | 0.00 | 37 | 1012.1 |
| 20260501153105 | 60 | 246 | 11.0 | 16.0 | 0.00 | 0.00 | 0.00 | 40 | 1012.3 |
| 20260501151607 | 58 | 238 | 13.0 | 16.0 | 0.00 | 0.00 | 0.00 | 42 | 1012.4 |
| 20260501144618 | 52 | 263 | 12.0 | 16.0 | 0.00 | 0.00 | 0.00 | 50 | 1012.7 |
| 20260501143100 | 50 | 251 | 10.0 | 16.0 | 0.00 | 0.00 | 0.00 | 50 | 1012.7 |
| 20260501141622 | 48 | 237 | 11.0 | 17.0 | 0.00 | 0.00 | 0.00 | 53 | 1012.7 |
| 20260501140109 | 46 | 241 | 10.0 | 14.0 | 0.00 | 0.00 | 0.00 | 56 | 1012.8 |